Tracking 28790 objects as of 19-Apr-2024
HD Live streaming from Space Station
objects crossing your sky now

COSMOS 970 DEB

Track COSMOS 970 DEB now!
10-day predictions


NORAD ID: 12860
Int'l Code: 1977-121AN
Perigee: 934.1 km
Apogee: 1,129.4 km
Inclination: 65.8 °
Period: 105.6 minutes
Semi major axis: 7402 km
RCS: 0.0115 m2 (small)
Launch date: December 21, 1977
Source: Commonwealth of Independent States (former USSR) (CIS)
Launch site: TYURATAM MISSILE AND SPACE COMPLEX (TTMTR)

Note: This is SATELLITE DEBRIS
Your satellite tracking list
Your tracking list is empty




NASA's NSSDC Master Catalog

Two Line Element Set (TLE):
1 12860U 77121AN  24109.48137723  .00000342  00000-0  50511-3 0  9990
2 12860  65.8022 123.6367 0131957 340.9277 183.5673 13.63057331203761
Source of the keplerian elements: AFSPC